SQ9CIE-4 Weather Reports


time (UTC)temp
C
wind
direction
speed
KPH
gust
KPH
rain 1hr
cm
rain 24hr
cm
rain mn
cm
humidity
%
barometer
mb
20260506171559 20 247 0.0 0.0 0.00 0.00 0.00 47 1005.0
20260506171059 20 247 0.0 0.0 0.00 0.00 0.00 47 1004.9
20260506170559 21 246 0.0 0.0 0.00 0.00 0.00 46 1005.0
20260506170059 21 247 0.0 3.2 0.00 0.00 0.00 45 1004.7
20260506165559 21 247 3.2 6.4 0.00 0.00 0.00 45 1004.7
20260506165059 21 248 1.6 8.0 0.00 0.00 0.00 44 1004.7
20260506164559 21 243 3.2 11.3 0.00 0.00 0.00 44 1004.8
20260506164059 21 236 9.7 17.7 0.00 0.00 0.00 43 1004.8
20260506163559 21 246 14.5 14.5 0.00 0.00 0.00 44 1004.7
20260506163059 22 272 14.5 20.9 0.00 0.00 0.00 44 1004.6
20260506162559 22 264 8.0 14.5 0.00 0.00 0.00 44 1004.6
20260506162059 22 244 9.7 20.9 0.00 0.00 0.00 44 1004.6
20260506161559 22 274 8.0 17.7 0.00 0.00 0.00 46 1004.7
20260506161059 22 295 12.9 24.1 0.00 0.00 0.00 46 1004.6
20260506160559 22 246 16.1 20.9 0.00 0.00 0.00 45 1004.7
20260506160059 22 268 17.7 24.1 0.00 0.00 0.00 43 1004.6
20260506155559 22 234 6.4 17.7 0.00 0.00 0.00 43 1004.4
20260506155059 22 251 14.5 17.7 0.00 0.00 0.00 43 1004.5
20260506154559 22 253 9.7 24.1 0.00 0.00 0.00 43 1004.6
20260506154059 22 230 6.4 14.5 0.00 0.00 0.00 43 1004.6
20260506153559 22 237 17.7 24.1 0.00 0.00 0.00 41 1004.7
20260506153059 22 244 12.9 20.9 0.00 0.00 0.00 41 1004.5
20260506152559 23 209 16.1 24.1 0.00 0.00 0.00 42 1004.5
20260506152059 23 189 19.3 24.1 0.00 0.00 0.00 40 1004.4
20260506151559 23 180 14.5 17.7 0.00 0.00 0.00 39 1004.3
20260506151059 23 294 6.4 17.7 0.00 0.00 0.00 38 1004.5
20260506150559 23 244 14.5 27.4 0.00 0.00 0.00 41 1004.5
20260506150059 23 250 17.7 32.2 0.00 0.00 0.00 39 1004.4
20260506145559 23 232 9.7 14.5 0.00 0.00 0.00 39 1004.4
20260506145059 23 179 9.7 17.7 0.00 0.00 0.00 43 1004.6
20260506144559 23 233 4.8 17.7 0.00 0.00 0.00 43 1004.8
20260506144059 23 239 12.9 17.7 0.00 0.00 0.00 41 1004.9
20260506143559 23 260 16.1 24.1 0.00 0.00 0.00 40 1005.0
20260506143059 23 257 24.1 32.2 0.00 0.00 0.00 40 1004.9
20260506142559 23 243 35.4 48.3 0.00 0.00 0.00 40 1004.9
20260506142059 23 204 17.7 32.2 0.00 0.00 0.00 39 1004.9
20260506141559 23 240 22.5 38.6 0.00 0.00 0.00 40 1004.9
20260506141059 23 242 22.5 41.8 0.00 0.00 0.00 38 1004.9
20260506140559 23 218 12.9 35.4 0.00 0.00 0.00 40 1004.9
20260506140059 23 246 33.8 41.8 0.00 0.00 0.00 38 1004.9
20260506135559 23 218 8.0 27.4 0.00 0.00 0.00 41 1004.8
20260506135059 23 243 19.3 27.4 0.00 0.00 0.00 40 1004.7
20260506134559 23 229 19.3 29.0 0.00 0.00 0.00 41 1004.9
20260506134059 23 209 12.9 29.0 0.00 0.00 0.00 43 1004.9
20260506133559 22 194 17.7 27.4 0.00 0.00 0.00 44 1005.1
20260506133059 23 273 22.5 27.4 0.00 0.00 0.00 42 1005.0
20260506132559 23 252 17.7 29.0 0.00 0.00 0.00 42 1004.7
20260506132059 23 252 27.4 32.2 0.00 0.00 0.00 42 1005.1
20260506131559 23 206 9.7 20.9 0.00 0.00 0.00 42 1005.1
20260506131059 22 246 24.1 41.8 0.00 0.00 0.00 44 1005.3
20260506130559 22 268 9.7 27.4 0.00 0.00 0.00 44 1005.4
20260506130059 22 265 17.7 35.4 0.00 0.00 0.00 44 1005.4
20260506125559 22 184 14.5 29.0 0.00 0.00 0.00 43 1005.6
20260506125059 23 245 19.3 32.2 0.00 0.00 0.00 42 1005.2
20260506124559 22 252 16.1 29.0 0.00 0.00 0.00 43 1005.4
20260506124059 22 248 25.7 48.3 0.00 0.00 0.00 43 1005.5
20260506123559 22 273 17.7 45.1 0.00 0.00 0.00 44 1005.3
20260506123059 22 170 19.3 45.1 0.00 0.00 0.00 44 1005.5
20260506122559 22 202 25.7 35.4 0.00 0.00 0.00 44 1005.3
20260506122059 22 230 20.9 27.4 0.00 0.00 0.00 43 1005.3
20260506121559 22 242 20.9 35.4 0.00 0.00 0.00 43 1005.5
20260506121059 22 224 17.7 45.1 0.00 0.00 0.00 42 1005.5
20260506120559 22 180 30.6 53.1 0.00 0.00 0.00 43 1005.3
20260506120059 22 208 37.0 48.3 0.00 0.00 0.00 43 1005.3
20260506115559 22 211 41.8 49.9 0.00 0.00 0.00 43 1005.5
20260506115059 22 252 25.7 45.1 0.00 0.00 0.00 44 1005.5
20260506114559 22 240 17.7 27.4 0.00 0.00 0.00 45 1005.4
20260506114059 22 223 22.5 41.8 0.00 0.00 0.00 43 1005.4
20260506113559 22 217 30.6 38.6 0.00 0.00 0.00 46 1005.5
20260506113100 22 225 24.1 48.3 0.00 0.00 0.00 46 1005.6
20260506112559 22 234 19.3 35.4 0.00 0.00 0.00 45 1005.8
20260506112059 22 205 8.0 27.4 0.00 0.00 0.00 48 1005.7
20260506111559 22 221 16.1 27.4 0.00 0.00 0.00 48 1005.7
20260506111059 22 250 14.5 38.6 0.00 0.00 0.00 46 1005.8
20260506110559 22 251 14.5 38.6 0.00 0.00 0.00 47 1005.7
20260506110059 22 270 12.9 24.1 0.00 0.00 0.00 50 1005.7
20260506105559 22 181 19.3 29.0 0.00 0.00 0.00 49 1005.8
20260506105059 22 183 14.5 48.3 0.00 0.00 0.00 50 1005.8
20260506104559 22 252 24.1 48.3 0.00 0.00 0.00 50 1006.2
20260506104059 21 244 14.5 38.6 0.00 0.00 0.00 50 1006.1
20260506103559 21 247 33.8 41.8 0.00 0.00 0.00 49 1006.0
20260506103059 22 209 17.7 35.4 0.00 0.00 0.00 48 1005.9
20260506102559 22 243 14.5 29.0 0.00 0.00 0.00 49 1005.9
20260506102059 22 185 24.1 49.9 0.00 0.00 0.00 48 1005.7
20260506101559 22 224 14.5 35.4 0.00 0.00 0.00 49 1005.8
20260506101059 22 204 24.1 29.0 0.00 0.00 0.00 48 1005.6
20260506100559 22 238 25.7 38.6 0.00 0.00 0.00 49 1005.6
20260506100059 21 191 17.7 38.6 0.00 0.00 0.00 51 1005.7
20260506095559 22 209 17.7 48.3 0.00 0.00 0.00 49 1005.8
20260506095059 21 242 20.9 38.6 0.00 0.00 0.00 51 1005.6
20260506094559 22 202 14.5 29.0 0.00 0.00 0.00 50 1005.7
20260506094059 21 227 22.5 29.0 0.00 0.00 0.00 52 1005.7
20260506093559 21 206 30.6 35.4 0.00 0.00 0.00 51 1005.7
20260506093059 21 209 19.3 32.2 0.00 0.00 0.00 53 1005.7
20260506092559 21 238 22.5 41.8 0.00 0.00 0.00 53 1005.8
20260506092059 20 188 19.3 29.0 0.00 0.00 0.00 54 1005.9
20260506091558 20 284 19.3 48.3 0.00 0.00 0.00 53 1005.8
20260506091059 20 216 40.2 48.3 0.00 0.00 0.00 53 1005.8
20260506090559 20 216 25.7 41.8 0.00 0.00 0.00 55 1005.9
20260506090059 20 275 19.3 35.4 0.00 0.00 0.00 54 1005.7
20260506085559 20 216 27.4 38.6 0.00 0.00 0.00 55 1005.7
20260506085058 20 256 19.3 48.3 0.00 0.00 0.00 55 1005.7
20260506084558 20 269 12.9 20.9 0.00 0.00 0.00 57 1005.8
20260506084059 20 253 27.4 35.4 0.00 0.00 0.00 55 1005.7
20260506083558 18 202 32.2 45.1 0.00 0.00 0.00 56 1005.7
20260506083058 18 190 24.1 29.0 0.00 0.00 0.00 57 1005.9
20260506082558 18 196 24.1 38.6 0.00 0.00 0.00 56 1005.6
20260506082058 18 260 14.5 35.4 0.00 0.00 0.00 57 1005.9
20260506081558 18 257 19.3 29.0 0.00 0.00 0.00 58 1006.1
20260506081058 17 270 30.6 48.3 0.00 0.00 0.00 58 1006.0
20260506080558 17 224 20.9 38.6 0.00 0.00 0.00 58 1005.9
20260506073058 17 250 24.1 41.8 0.00 0.00 0.00 59 1005.7
20260506072558 17 171 20.9 38.6 0.00 0.00 0.00 59 1005.7
20260506072058 17 255 27.4 48.3 0.00 0.00 0.00 59 1005.7
20260506071558 17 230 30.6 38.6 0.00 0.00 0.00 60 1005.7
20260506071058 17 255 25.7 45.1 0.00 0.00 0.00 60 1005.6
20260506070558 17 135 30.6 38.6 0.00 0.00 0.00 60 1005.8
20260506062059 17 222 14.5 32.2 0.00 0.00 0.00 61 1005.6
20260506061558 17 224 16.1 24.1 0.00 0.00 0.00 61 1005.6
20260506061058 17 207 20.9 35.4 0.00 0.00 0.00 61 1005.5
20260506060559 17 221 14.5 29.0 0.00 0.00 0.00 61 1005.5
20260506051058 16 192 22.5 24.1 0.00 0.00 0.00 63 1005.8
20260506050559 16 220 22.5 29.0 0.00 0.00 0.00 63 1005.7
20260506045058 15 229 16.1 32.2 0.00 0.00 0.00 64 1005.8
20260506044558 16 238 16.1 27.4 0.00 0.00 0.00 63 1005.7
20260506044058 16 181 22.5 27.4 0.00 0.00 0.00 62 1005.7
20260506043558 16 211 22.5 27.4 0.00 0.00 0.00 62 1005.7
20260506043058 15 233 12.9 17.7 0.00 0.00 0.00 62 1005.8
20260506042558 15 190 9.7 20.9 0.00 0.00 0.00 63 1005.8
20260506042058 15 225 3.2 17.7 0.00 0.00 0.00 64 1005.7
20260506041558 15 239 9.7 11.3 0.00 0.00 0.00 64 1005.8
20260506041058 15 218 11.3 20.9 0.00 0.00 0.00 64 1005.8
20260506040558 13 218 9.7 24.1 0.00 0.00 0.00 65 1005.8
20260506040058 13 199 9.7 17.7 0.00 0.00 0.00 65 1005.9
20260506035558 13 229 3.2 14.5 0.00 0.00 0.00 65 1005.7
20260506035058 13 283 8.0 14.5 0.00 0.00 0.00 64 1005.6
20260506034558 13 210 6.4 14.5 0.00 0.00 0.00 64 1005.8
20260506034058 13 228 8.0 17.7 0.00 0.00 0.00 65 1005.6
20260506033558 13 229 9.7 17.7 0.00 0.00 0.00 65 1005.6
20260506033058 13 211 12.9 20.9 0.00 0.00 0.00 65 1005.8
20260506032558 12 225 8.0 14.5 0.00 0.00 0.00 65 1005.8
20260506032058 13 205 11.3 14.5 0.00 0.00 0.00 64 1005.8
20260506031558 13 203 8.0 11.3 0.00 0.00 0.00 65 1005.8
20260506031058 13 215 8.0 17.7 0.00 0.00 0.00 64 1005.9
20260506030558 13 194 12.9 17.7 0.00 0.00 0.00 63 1005.7
20260506030058 12 215 3.2 6.4 0.00 0.00 0.00 62 1005.6
20260506025558 13 215 0.0 0.0 0.00 0.00 0.00 61 1005.7
20260506025058 13 222 1.6 6.4 0.00 0.00 0.00 60 1005.8
20260506024558 13 222 0.0 6.4 0.00 0.00 0.00 59 1005.6
20260506024058 13 252 0.0 0.0 0.00 0.00 0.00 58 1005.6
20260506023558 13 253 3.2 8.0 0.00 0.00 0.00 57 1005.7
20260506023058 13 221 4.8 6.4 0.00 0.00 0.00 58 1005.7
20260506022558 13 129 0.0 0.0 0.00 0.00 0.00 57 1005.6
20260506022058 13 129 0.0 0.0 0.00 0.00 0.00 57 1005.4
20260506021558 13 129 0.0 0.0 0.00 0.00 0.00 57 1005.7
20260506021058 13 129 0.0 0.0 0.00 0.00 0.00 58 1005.7
20260506020558 13 129 0.0 0.0 0.00 0.00 0.00 58 1005.8
20260506020058 13 129 0.0 0.0 0.00 0.00 0.00 58 1005.8
20260506015558 13 129 0.0 0.0 0.00 0.00 0.00 57 1005.6
20260506015059 13 129 1.6 3.2 0.00 0.00 0.00 57 1005.6
20260506014558 13 129 0.0 0.0 0.00 0.00 0.00 57 1005.8
20260506014058 13 129 0.0 0.0 0.00 0.00 0.00 58 1005.7
20260506013558 13 129 0.0 0.0 0.00 0.00 0.00 58 1005.9
20260506013058 13 129 0.0 0.0 0.00 0.00 0.00 57 1005.9
20260506012558 13 129 0.0 0.0 0.00 0.00 0.00 57 1006.0
20260506012058 13 129 0.0 0.0 0.00 0.00 0.00 56 1005.8
20260506011558 13 129 0.0 0.0 0.00 0.00 0.00 55 1005.7
20260506011058 13 129 0.0 0.0 0.00 0.00 0.00 54 1005.7
20260506010558 13 129 0.0 0.0 0.00 0.00 0.00 54 1005.9
20260506010058 13 129 0.0 0.0 0.00 0.00 0.00 54 1005.9
20260506005558 15 129 0.0 0.0 0.00 0.00 0.00 53 1005.8
20260506005058 15 129 0.0 0.0 0.00 0.00 0.00 53 1005.7
20260506004558 15 129 0.0 3.2 0.00 0.00 0.00 53 1005.8
20260506004058 15 129 0.0 0.0 0.00 0.00 0.00 53 1006.0
20260506003558 15 129 0.0 3.2 0.00 0.00 0.00 53 1005.8
20260506003058 15 129 6.4 6.4 0.00 0.00 0.00 54 1005.6
20260506002558 15 129 3.2 6.4 0.00 0.00 0.00 53 1005.8
20260506002058 15 129 3.2 3.2 0.00 0.00 0.00 53 1005.7
20260506001558 15 129 3.2 3.2 0.00 0.00 0.00 54 1005.9
20260506001058 15 129 3.2 3.2 0.00 0.00 0.00 53 1005.8
20260506000558 15 129 1.6 6.4 0.00 0.00 0.00 53 1005.7
20260506000058 15 129 0.0 3.2 0.00 0.00 0.00 54 1005.8
20260505235558 15 129 0.0 3.2 0.00 0.00 0.00 54 1006.0
20260505235058 16 129 3.2 6.4 0.00 0.00 0.00 53 1006.0
20260505234558 16 129 4.8 6.4 0.00 0.00 0.00 53 1005.9
20260505234058 16 129 6.4 6.4 0.00 0.00 0.00 52 1005.8
20260505233558 16 129 4.8 6.4 0.00 0.00 0.00 52 1005.9
20260505233058 16 129 3.2 6.4 0.00 0.00 0.00 52 1006.0
20260505232558 16 129 4.8 6.4 0.00 0.00 0.00 51 1006.0
20260505232058 16 129 0.0 3.2 0.00 0.00 0.00 51 1006.0
20260505231558 16 129 3.2 6.4 0.00 0.00 0.00 52 1006.2
20260505231058 16 129 3.2 8.0 0.00 0.00 0.00 51 1006.1
20260505230558 16 129 6.4 6.4 0.00 0.00 0.00 51 1006.1
20260505230058 16 171 6.4 6.4 0.00 0.00 0.00 50 1006.2
20260505225558 16 171 3.2 6.4 0.00 0.00 0.00 51 1006.4
20260505225058 16 171 3.2 6.4 0.00 0.00 0.00 51 1006.3
20260505224558 16 171 4.8 6.4 0.00 0.00 0.00 51 1006.4
20260505224058 16 172 3.2 6.4 0.00 0.00 0.00 51 1006.3
20260505223558 15 172 3.2 3.2 0.00 0.00 0.00 52 1006.4
20260505223058 16 172 3.2 6.4 0.00 0.00 0.00 51 1006.4
20260505222558 16 172 3.2 6.4 0.00 0.00 0.00 51 1006.4
20260505222058 16 172 0.0 3.2 0.00 0.00 0.00 51 1006.6
20260505221558 16 172 3.2 3.2 0.00 0.00 0.00 50 1006.6
20260505221058 16 211 0.0 3.2 0.00 0.00 0.00 49 1006.4
20260505220558 16 204 1.6 6.4 0.00 0.00 0.00 49 1006.5
20260505220058 16 216 1.6 8.0 0.00 0.00 0.00 48 1006.5
20260505215558 17 221 3.2 6.4 0.00 0.00 0.00 47 1006.6
20260505215058 17 225 4.8 8.0 0.00 0.00 0.00 46 1006.6
20260505214558 17 215 3.2 6.4 0.00 0.00 0.00 45 1006.6
20260505214058 17 175 6.4 8.0 0.00 0.00 0.00 45 1006.7
20260505213558 17 149 6.4 6.4 0.00 0.00 0.00 45 1006.4
20260505212558 17 169 3.2 6.4 0.00 0.00 0.00 44 1006.4
20260505212058 17 142 0.0 6.4 0.00 0.00 0.00 44 1006.7
20260505211558 17 143 0.0 3.2 0.00 0.00 0.00 43 1006.7
20260505211058 17 142 4.8 6.4 0.00 0.00 0.00 43 1006.4
20260505210558 17 142 1.6 3.2 0.00 0.00 0.00 42 1006.5
20260505210058 17 142 0.0 6.4 0.00 0.00 0.00 42 1006.6
20260505205558 17 142 1.6 3.2 0.00 0.00 0.00 42 1006.6
20260505205058 17 142 1.6 3.2 0.00 0.00 0.00 42 1006.9
20260505204558 17 142 3.2 3.2 0.00 0.00 0.00 42 1006.6
20260505204058 17 142 1.6 3.2 0.00 0.00 0.00 41 1006.6
20260505203558 17 143 1.6 3.2 0.00 0.00 0.00 41 1006.6
20260505203058 17 143 0.0 3.2 0.00 0.00 0.00 40 1006.5
20260505202558 17 143 1.6 3.2 0.00 0.00 0.00 39 1006.4
20260505202058 17 143 0.0 0.0 0.00 0.00 0.00 39 1006.5
20260505201558 17 142 0.0 3.2 0.00 0.00 0.00 39 1006.5
20260505201058 17 161 4.8 6.4 0.00 0.00 0.00 39 1006.6
20260505200558 17 163 0.0 0.0 0.00 0.00 0.00 39 1006.5
20260505200058 17 163 0.0 0.0 0.00 0.00 0.00 39 1006.5
20260505195558 17 163 3.2 3.2 0.00 0.00 0.00 39 1006.5
20260505195058 17 163 1.6 3.2 0.00 0.00 0.00 40 1006.7
20260505194558 17 176 3.2 3.2 0.00 0.00 0.00 38 1006.3
20260505194058 17 176 0.0 6.4 0.00 0.00 0.00 37 1006.3
20260505193558 18 176 0.0 0.0 0.00 0.00 0.00 36 1006.3
20260505193058 18 176 1.6 8.0 0.00 0.00 0.00 36 1006.2
20260505192558 18 133 4.8 6.4 0.00 0.00 0.00 36 1006.4
20260505192058 18 133 1.6 6.4 0.00 0.00 0.00 35 1006.5
20260505191558 18 132 3.2 6.4 0.00 0.00 0.00 35 1006.2
20260505191058 18 133 1.6 3.2 0.00 0.00 0.00 34 1006.2
20260505190558 18 133 4.8 8.0 0.00 0.00 0.00 33 1006.2
20260505190058 20 149 3.2 6.4 0.00 0.00 0.00 33 1006.1
20260505185558 20 149 3.2 6.4 0.00 0.00 0.00 32 1006.0
20260505185058 20 149 1.6 8.0 0.00 0.00 0.00 31 1005.9
20260505184558 20 184 3.2 6.4 0.00 0.00 0.00 31 1005.9
20260505184058 20 166 3.2 6.4 0.00 0.00 0.00 30 1005.9
20260505183558 21 212 3.2 8.0 0.00 0.00 0.00 30 1005.9
20260505183058 21 213 6.4 6.4 0.00 0.00 0.00 29 1005.8
20260505182558 21 212 8.0 8.0 0.00 0.00 0.00 29 1005.8
20260505182058 21 214 3.2 6.4 0.00 0.00 0.00 29 1005.7
20260505181558 21 214 3.2 8.0 0.00 0.00 0.00 29 1005.7
20260505181058 22 214 8.0 11.3 0.00 0.00 0.00 28 1005.6
20260505180558 22 185 9.7 11.3 0.00 0.00 0.00 28 1005.5
20260505180058 22 192 6.4 14.5 0.00 0.00 0.00 27 1005.5
20260505175558 22 211 6.4 8.0 0.00 0.00 0.00 27 1005.6
20260505175058 22 211 8.0 14.5 0.00 0.00 0.00 26 1005.5
20260505174558 22 185 11.3 17.7 0.00 0.00 0.00 26 1005.4
20260505174058 22 205 12.9 17.7 0.00 0.00 0.00 26 1005.3
20260505173558 22 209 9.7 14.5 0.00 0.00 0.00 25 1005.4
20260505173058 22 208 14.5 17.7 0.00 0.00 0.00 25 1005.1
20260505172558 22 197 14.5 20.9 0.00 0.00 0.00 25 1005.2
20260505172058 23 201 17.7 35.4 0.00 0.00 0.00 24 1005.0